Regional Weather Roundup
Issued by NWS

Home | Current Version | Previous Version | Graphics & Text | Print | Product List | Glossary On
Versions: 1 2 3 4 5 6 7 8 9 10 11 12 13 14 15 16 17 18 19 20 21 22 23 24 25 26 27 28 29 30 31 32 33 34 35 36 37 38 39 40 41 42 43 44 45 46 47 48 49 50
000
ASUS43 KFSD 110602
RWRSD

WEATHER ROUNDUP FOR SOUTH DAKOTA
NATIONAL WEATHER SERVICE SIOUX FALLS SD
1200 AM CST SUN DEC 11 2016

NOTE: "FAIR" INDICATES FEW OR NO CLOUDS BELOW 12,000 FEET WITH NO
SIGNIFICANT WEATHER AND/OR OBSTRUCTIONS TO VISIBILITY.


SDZ001>005-009-010-012>017-110700-
NORTHWEST AND NORTH CENTRAL SOUTH DAKOTA

CITY           SKY/WX    TMP DP  RH WIND       PRES   REMARKS
BUFFALO          N/A      4  -1  80 S6        29.70R WCI  -7
FAITH            N/A      2  -1  88 NE5       29.81F WCI  -8
MOBRIDGE       LGT SNOW   7   0  73 E7        29.89R WCI  -5
$$

SDZ012>016-024>037-041>051-057-063-072>074-110700-
SOUTHWEST AND SOUTH CENTRAL SOUTH DAKOTA

CITY           SKY/WX    TMP DP  RH WIND       PRES   REMARKS
RAPID CTY ARPT CLOUDY     4   0  83 N8        29.76R WCI  -9
PIERRE         LGT SNOW  10   6  84 NE15      29.84R FOG     WCI  -7
CUSTER         CLOUDY    31  14  49 N8        29.63R WCI  23
ELLSWORTH AFB  CLOUDY     3   0  85 N7        29.75  WCI  -9
PHILIP         CLOUDY     7   3  84 N14       29.84S WCI -10
PINE RIDGE     CLOUDY     6   5  95 W5        29.77S WCI  -3
SPEARFISH      CLOUDY     7   3  85 W5        29.75S WCI  -2
WINNER         CLOUDY    23  19  85 SE14      29.73R WCI  11
$$

SDZ004>011-016>023-039-040-110700-
NORTHEAST SOUTH DAKOTA

CITY           SKY/WX    TMP DP  RH WIND       PRES   REMARKS
ABERDEEN       LGT SNOW  10   4  76 NE12      29.96F VSB 1   WCI  -5
WATERTOWN      LGT SNOW   8   4  83 E15G23    29.90F VSB 3/4 WCI  -9
BROOKINGS      LGT SNOW  14  10  85 E16       29.89F FOG     WCI  -2
$$

SDZ017-020-022-023-036>040-048>070-110700-
SOUTHEAST SOUTH DAKOTA

CITY           SKY/WX    TMP DP  RH WIND       PRES   REMARKS
SIOUX FALLS    CLOUDY    21  19  92 E16       29.88F WCI   7
HURON          LGT SNOW  17  14  88 E10       29.87S FOG     WCI   5
MITCHELL       CLOUDY    22  19  89 SE17      29.83F WCI   8
YANKTON        CLOUDY    25  18  74 E13       29.83F WCI  13
$$

ABBREVIATIONS USED IN REMARKS
   TC - TEMPERATURE IN CELSIUS
  WCI - WIND CHILL INDEX
   HX - HEAT INDEX
  VSB - VISIBILITY





USA.gov is the U.S. government's official web portal to all federal, state and local government web resources and services.